La Grande, OR

4:57 AM PDT on May 21, 2018 (GMT -0700)
La Grande-Union County

Weather History for KLGD - November, 2013

Change the Weather History Date:

Thursday, November 7, 2013

  Actual Average Record
Temperature  
Mean Temperature 44 °F -  
Max Temperature 50 °F 48 °F 68 °F (1976)
Min Temperature 37 °F 31 °F 15 °F (2001)
Degree Days  
Heating Degree Days 22    
Moisture  
Dew Point 33 °F    
Average Humidity 63    
Maximum Humidity 71    
Minimum Humidity 49    
Precipitation  
Precipitation 0.24 in - - ()
Sea Level Pressure  
Sea Level Pressure 30.00 in    
Wind  
Wind Speed 16 mph (South)    
Max Wind Speed 29 mph    
Max Gust Speed 36 mph    
Visibility 10 miles    
Events      
Averages and records for this station are not official NWS values.
T = Trace of Precipitation, MM = Missing Value Source: NWS Daily Summary

Daily Weather History Graph

Daily Weather History Graph

Search for Another Location

Airport or City:

Astronomy

Nov. 07, 2013 Rise Set
Actual Time 6:39 AM PST 4:30 PM PST
Civil Twilight 6:08 AM PST 5:02 PM PST
Nautical Twilight 5:33 AM PST 5:37 PM PST
Astronomical Twilight 4:58 AM PST 6:12 PM PST
Moon 10:54 AM PST (11/7) 8:46 PM PST (11/7)
Length of Visible Light 10h 53m
Length of Day
9h 51m
Waxing Crescent, 24% of the Moon is Illuminated
Nov 7
Waxing Crescent
Nov 9
First Quarter
Nov 17
Full
Nov 25
Last Quarter
Dec 2
New

Hourly Weather History & Observations

Time (PST) Temp. Windchill Dew Point Humidity Pressure Visibility Wind Dir Wind Speed Gust Speed Precip Events Conditions
12:15 AM 44.6 °F 36.9 °F 33.8 °F 66% 30.21 in 10.0 mi SSW 18.4 mph 26.5 mph 0.01 in   Overcast
12:35 AM 44.6 °F 35.7 °F 33.8 °F 66% 30.20 in 10.0 mi SSW 24.2 mph 29.9 mph 0.01 in   Overcast
12:55 AM 44.6 °F 35.9 °F 33.8 °F 66% 30.19 in 10.0 mi SSW 23.0 mph 26.5 mph 0.01 in   Overcast
1:15 AM 44.6 °F 37.4 °F 33.8 °F 66% 30.20 in 10.0 mi South 16.1 mph 26.5 mph N/A   Overcast
1:35 AM 44.6 °F 37.8 °F 35.6 °F 71% 30.18 in 10.0 mi South 15.0 mph 21.9 mph N/A   Overcast
1:55 AM 44.6 °F 37.8 °F 35.6 °F 71% 30.18 in 10.0 mi South 15.0 mph 23.0 mph 0.01 in   Overcast
2:15 AM 44.6 °F 37.4 °F 35.6 °F 71% 30.17 in 10.0 mi South 16.1 mph 19.6 mph N/A   Overcast
2:35 AM 44.6 °F 36.9 °F 35.6 °F 71% 30.16 in 10.0 mi South 18.4 mph 21.9 mph N/A   Overcast
2:55 AM 44.6 °F 38.8 °F 35.6 °F 71% 30.15 in 10.0 mi SSE 11.5 mph - N/A   Overcast
3:15 AM 44.6 °F 36.9 °F 35.6 °F 71% 30.14 in 10.0 mi South 18.4 mph 23.0 mph N/A   Overcast
3:35 AM 46.4 °F 39.5 °F 35.6 °F 66% 30.14 in 10.0 mi South 17.3 mph 23.0 mph N/A   Overcast
3:55 AM 44.6 °F 36.9 °F 35.6 °F 71% 30.14 in 10.0 mi South 18.4 mph - N/A   Overcast
4:15 AM 46.4 °F 39.8 °F 35.6 °F 66% 30.12 in 10.0 mi SSE 16.1 mph 20.7 mph 0.01 in   Overcast
4:35 AM 46.4 °F 40.1 °F 35.6 °F 66% 30.11 in 10.0 mi SE 15.0 mph 24.2 mph 0.01 in   Overcast
4:55 AM 46.4 °F 41.9 °F 35.6 °F 66% 30.10 in 10.0 mi South 9.2 mph 17.3 mph 0.01 in   Overcast
5:15 AM 46.4 °F 41.5 °F 35.6 °F 66% 30.10 in 10.0 mi South 10.4 mph 20.7 mph N/A   Overcast
5:35 AM 46.4 °F 39.5 °F 35.6 °F 66% 30.08 in 10.0 mi SSE 17.3 mph 29.9 mph N/A   Overcast
5:55 AM 46.4 °F 39.0 °F 35.6 °F 66% 30.07 in 10.0 mi SSE 19.6 mph 25.3 mph N/A   Overcast
6:15 AM 46.4 °F 41.9 °F 35.6 °F 66% 30.07 in 10.0 mi SSE 9.2 mph - N/A   Overcast
6:35 AM 46.4 °F 41.1 °F 35.6 °F 66% 30.05 in 10.0 mi SSE 11.5 mph 20.7 mph N/A   Overcast
6:55 AM 46.4 °F 39.0 °F 35.6 °F 66% 30.03 in 10.0 mi South 19.6 mph 26.5 mph N/A   Overcast
7:15 AM 46.4 °F 40.7 °F 35.6 °F 66% 30.02 in 10.0 mi South 12.7 mph 24.2 mph N/A   Overcast
7:35 AM 46.4 °F 39.8 °F 35.6 °F 66% 30.02 in 10.0 mi South 16.1 mph 25.3 mph N/A   Mostly Cloudy
7:55 AM 48.2 °F - 35.6 °F 62% 30.01 in 10.0 mi South 20.7 mph 33.4 mph N/A   Partly Cloudy
8:15 AM 48.2 °F - 35.6 °F 62% 30.01 in 10.0 mi SSW 20.7 mph 34.5 mph N/A   Clear
8:35 AM 48.2 °F - 35.6 °F 62% 30.02 in 10.0 mi South 24.2 mph 33.4 mph N/A   Mostly Cloudy
8:55 AM 48.2 °F - 35.6 °F 62% 30.01 in 10.0 mi South 17.3 mph 35.7 mph N/A   Overcast
9:15 AM 48.2 °F - 35.6 °F 62% 30.00 in 10.0 mi South 21.9 mph 27.6 mph N/A   Overcast
9:35 AM 48.2 °F - 35.6 °F 62% 29.98 in 10.0 mi SSW 25.3 mph 32.2 mph N/A   Mostly Cloudy
9:55 AM 48.2 °F - 35.6 °F 62% 29.97 in 10.0 mi South 28.8 mph 35.7 mph N/A   Clear
10:15 AM 48.2 °F - 35.6 °F 62% 29.96 in 10.0 mi SSW 23.0 mph 35.7 mph N/A   Scattered Clouds
10:35 AM 48.2 °F - 35.6 °F 62% 29.96 in 10.0 mi SSW 25.3 mph 34.5 mph N/A   Mostly Cloudy
10:55 AM 48.2 °F - 35.6 °F 62% 29.95 in 6.0 mi SSW 25.3 mph 34.5 mph 0.01 in   Overcast
11:15 AM 48.2 °F - 35.6 °F 62% 29.94 in 8.0 mi SSW 18.4 mph 31.1 mph 0.02 in   Overcast
11:35 AM 46.4 °F 38.3 °F 35.6 °F 66% 29.92 in 5.0 mi SSW 23.0 mph 32.2 mph 0.03 in   Overcast
11:55 AM 46.4 °F 38.7 °F 35.6 °F 66% 29.91 in 9.0 mi South 20.7 mph 35.7 mph 0.05 in   Overcast
12:15 PM 48.2 °F - 35.6 °F 62% 29.90 in 10.0 mi SSW 19.6 mph 28.8 mph N/A   Mostly Cloudy
12:35 PM 48.2 °F - 37.4 °F 66% 29.88 in 10.0 mi SSW 20.7 mph 26.5 mph N/A   Mostly Cloudy
12:55 PM 48.2 °F - 37.4 °F 66% 29.86 in 10.0 mi South 18.4 mph 31.1 mph N/A   Mostly Cloudy
1:15 PM 48.2 °F - 37.4 °F 66% 29.85 in 10.0 mi SSW 20.7 mph 29.9 mph N/A   Overcast
1:35 PM 48.2 °F - 37.4 °F 66% 29.84 in 8.0 mi SSW 17.3 mph 23.0 mph N/A   Mostly Cloudy
1:55 PM 50.0 °F - 37.4 °F 62% 29.83 in 10.0 mi SSW 17.3 mph 21.9 mph N/A   Overcast
2:15 PM 50.0 °F - 37.4 °F 62% 29.83 in 10.0 mi SSW 15.0 mph - N/A   Mostly Cloudy
2:35 PM 48.2 °F - 37.4 °F 66% 29.87 in 10.0 mi NW 26.5 mph 31.1 mph N/A   Mostly Cloudy
2:55 PM 42.8 °F 35.4 °F 32.0 °F 66% 29.90 in 5.0 mi WNW 15.0 mph 21.9 mph 0.07 in   Mostly Cloudy
3:15 PM 42.8 °F 35.8 °F 32.0 °F 66% 29.89 in 7.0 mi West 13.8 mph 27.6 mph 0.07 in   Overcast
3:35 PM 44.6 °F 37.2 °F 33.8 °F 66% 29.88 in 9.0 mi West 17.3 mph 26.5 mph 0.08 in   Overcast
3:55 PM 46.4 °F 42.9 °F 33.8 °F 62% 29.91 in 10.0 mi NW 6.9 mph - 0.08 in   Overcast
4:15 PM 42.8 °F 38.0 °F 32.0 °F 66% 29.91 in 10.0 mi East 8.1 mph - N/A   Mostly Cloudy
4:35 PM 42.8 °F 37.5 °F 32.0 °F 66% 29.91 in 10.0 mi ESE 9.2 mph - N/A   Mostly Cloudy
4:55 PM 42.8 °F 39.3 °F 32.0 °F 66% 29.92 in 10.0 mi East 5.8 mph - N/A   Clear
5:15 PM 42.8 °F 37.5 °F 32.0 °F 66% 29.92 in 10.0 mi East 9.2 mph - N/A   Partly Cloudy
5:35 PM 44.6 °F 40.7 °F 32.0 °F 61% 29.93 in 10.0 mi SW 6.9 mph - N/A   Clear
5:55 PM 39.2 °F 37.0 °F 28.4 °F 65% 29.94 in 10.0 mi West 3.5 mph - N/A   Clear
6:15 PM 37.4 °F 34.9 °F 28.4 °F 70% 29.95 in 10.0 mi SW 3.5 mph - N/A   Clear
6:35 PM 42.8 °F 34.8 °F 30.2 °F 61% 29.94 in 10.0 mi West 17.3 mph 25.3 mph N/A   Clear
6:55 PM 42.8 °F 37.0 °F 28.4 °F 57% 29.95 in 10.0 mi WNW 10.4 mph - N/A   Clear
7:15 PM 44.6 °F 40.2 °F 28.4 °F 53% 29.95 in 10.0 mi West 8.1 mph - N/A   Mostly Cloudy
7:35 PM 41.0 °F 38.0 °F 26.6 °F 57% 29.96 in 10.0 mi ESE 4.6 mph - N/A   Overcast
7:55 PM 39.2 °F 32.5 °F 26.6 °F 61% 29.96 in 10.0 mi ESE 10.4 mph - N/A   Overcast
8:15 PM 39.2 °F 32.5 °F 26.6 °F 61% 29.96 in 10.0 mi East 10.4 mph - N/A   Mostly Cloudy
8:35 PM 42.8 °F - 28.4 °F 57% 29.97 in 10.0 mi Calm Calm - N/A   Partly Cloudy
8:55 PM 41.0 °F - 26.6 °F 57% 29.97 in 10.0 mi Calm Calm - N/A   Clear
9:15 PM 41.0 °F 36.4 °F 26.6 °F 57% 29.98 in 10.0 mi ESE 6.9 mph - N/A   Mostly Cloudy
9:35 PM 42.8 °F 41.1 °F 24.8 °F 49% 29.98 in 10.0 mi NNW 3.5 mph 19.6 mph N/A   Overcast
9:55 PM 42.8 °F 38.6 °F 24.8 °F 49% 29.98 in 10.0 mi NE 6.9 mph - N/A   Overcast
10:15 PM 41.0 °F 35.8 °F 24.8 °F 53% 29.99 in 10.0 mi NNE 8.1 mph - N/A   Overcast
10:35 PM 41.0 °F - 26.6 °F 57% 29.99 in 10.0 mi Calm Calm - N/A   Overcast
10:55 PM 39.2 °F - 24.8 °F 56% 30.00 in 10.0 mi Calm Calm - N/A   Overcast
11:15 PM 39.2 °F - 24.8 °F 56% 30.00 in 10.0 mi Calm Calm - N/A   Overcast
11:35 PM 41.0 °F 39.0 °F 24.8 °F 53% 30.00 in 10.0 mi ENE 3.5 mph - N/A   Overcast
11:55 PM 41.0 °F 38.0 °F 26.6 °F 57% 30.00 in 10.0 mi East 4.6 mph - N/A   Overcast